User: anonymous   Login
Location: Bonningues
(50.7927°N, 2.0150°E)
Time: 13:59:02
(UTC+00:00)
Language:

Okean 1 - Orbit

View from above orbital plane
View from above orbital plane
View from above satellite
View from above satellite

Ground track
Ground track

The orbit data is extracted from the following two-line orbital elements,

1 19274U 88056A   20294.69506810 +.00000160 +00000-0 +87888-5 0  9993
2 19274 082.5062 042.7478 0014187 104.9875 255.2924 15.06497370758815
Epoch (UTC): 20 October 2020 16:40:53
Eccentricity: 0.0014187
inclination: 82.5062°
perigee height: 537 km
apogee height: 557 km
right ascension of ascending node: 42.7478°
argument of perigee: 104.9875°
revolutions per day: 15.06497370
mean anomaly at epoch: 255.2924°
orbit number at epoch: 75881

The dashed part of the orbit path shows where the satellite is in the earth's shadow,  

DLR